Regional Weather Roundup
Issued by NWS

Home | Current Version | Previous Version | Graphics & Text | Print | Product List | Glossary On
Versions: 1 2 3 4 5 6 7 8 9 10 11 12 13 14 15 16 17 18 19 20 21 22 23 24 25 26 27 28 29 30 31 32 33 34 35 36 37 38 39 40 41 42 43 44 45 46 47 48 49
000
ASUS45 KCYS 020710
RWRWY

WYOMING REGIONAL WEATHER ROUNDUP
NATIONAL WEATHER SERVICE CHEYENNE WY
1200 AM MST MON MAR 02 2015

NOTE:  "FAIR" INDICATES FEW OR NO CLOUDS BELOW 12,000 FEET
WITH NO SIGNIFICANT WEATHER AND/OR OBSTRUCTIONS TO VISIBILITY.

WYZ001-020800-
YELLOWSTONE NATIONAL PARK

CITY           SKY/WX    TMP DP  RH WIND       PRES   REMARKS
LK YELLOWSTONE   N/A     -5 -10  79 NW3       29.97F
W YELLOWSTONE  NOT AVBL

$$
WYZ002>013-054>058-071-098>099-020800-
NORTHERN WYOMING

CITY           SKY/WX    TMP DP  RH WIND       PRES   REMARKS
JACKSON        MOCLDY     7   1  78 N12       30.01S WCI  -9
CODY           FAIR      12   9  85 S7        29.98F WCI   2
GREYBULL       FAIR      18  10  71 SE3       30.06F
WORLAND        FAIR      19  10  68 CALM      30.04F
SHERIDAN       FAIR       9   2  73 S3        30.02F
BUFFALO        FAIR      11   2  67 W9        29.97F WCI  -2
GILLETTE       FAIR      17   7  64 SE10      30.06F WCI   5
HULETT         FAIR      16   5  62 CALM      30.10F
NEWCASTLE      FAIR      19   5  53 SE14G21   30.16F WCI   6

$$
WYZ014>020-022>026-101>103-020800-
CENTRAL WYOMING

CITY           SKY/WX    TMP DP  RH WIND       PRES   REMARKS
BIG PINEY      FAIR      15  11  83 CALM      30.02F
PINEDALE       FAIR       5   1  85 NW8       30.03R WCI  -8
DUBOIS         FAIR      12   5  73 NW21      29.94F WCI  -6
LANDER         FAIR      14   8  77 CALM      30.02F
RIVERTON       FAIR      13   7  77 NW6       30.04F WCI   4
CASPER         FAIR      19  12  74 CALM      30.04F
DOUGLAS        FAIR      24  14  65 SE10      30.08F WCI  14

$$
WYZ021-027>030-104>119-020800-
SOUTHERN WYOMING

CITY           SKY/WX    TMP DP  RH WIND       PRES   REMARKS
EVANSTON       CLOUDY    25  18  74 NE6       29.96F WCI  18
FORT BRIDGER   FAIR      24  22  92 CALM      30.00F
ROCK SPRINGS   MOCLDY    23  16  74 NE5       29.99F WCI  17
DIXON          CLOUDY    30  26  84 CALM      30.02F
RAWLINS        CLOUDY    23  15  71 E3        30.00F
SARATOGA       CLOUDY    28  21  74 MISG      30.01F
LARAMIE        FAIR      17  13  84 S17       30.00F WCI   1
CHEYENNE       FAIR      19  14  81 S12       30.10F WCI   7
TORRINGTON     FAIR      25  17  72 SE12      30.17F WCI  14
PINE BLUFFS    FAIR      21  19  93 S5        30.17F WCI  15

$$



USA.gov is the U.S. government's official web portal to all federal, state and local government web resources and services.